Zurück zum Katalog

STARLINK-5127

AktivKommunikationVLEO
NORAD 54010·PAYLOAD·🇺🇸 United States

Gestartet Oct 5, 2022 von Vandenberg Space Force Base

Loading…

Nächste Überflüge (nächste 24 Stunden)

TLE

AktuellSource: CelesTrak SupGP

Epoche: Sep 14, 2026, 21:06 UTC

1 54010C 22125AY  26257.87965278  .00045672  00000+0  13496-2 0  2571
2 54010  53.1589  63.7289 0001165  78.8274 276.3826 15.34363377    14

Verfolge STARLINK-5127 in Echtzeit mit AllMySat

Download on the App Store